Precipitable_Water
0.23 0.18 0.15 0.14 0.18 0.19 0.21 0.21 0.21 0.22 0.22 0.20 0.17 0.15 0.16 0.14 0.15 0.19 0.20 0.21 0.23 0.19 0.23 0.32 0.37 0.32 0.34 0.39 0.40 0.45 0.48 0.46 0.46 0.47 0.46 0.47 0.56 0.59 0.61 0.66 0.74 0.83 0.93 1.03 1.08 1.14 1.17 1.19 1.17 1.20 1.20 1.25 1.28 1.25 1.26 1.31 1.27 1.20 1.23 1.23 1.23 1.36 1.39 1.38 1.36 1.32 1.33 1.31 1.31 1.30 1.28 1.28 1.36 1.36 1.40 1.48 1.54 1.56 1.57 1.60 1.63 1.68 1.68 1.64 1.71 1.64
0.23 0.17 0.16 0.16 0.21 0.22 0.21 0.22 0.25 0.24 0.21 0.18 0.16 0.15 0.15 0.15 0.16 0.18 0.19 0.21 0.23 0.22 0.31 0.34 0.32 0.32 0.37 0.40 0.44 0.47 0.46 0.42 0.47 0.49 0.51 0.53 0.59 0.63 0.68 0.72 0.82 0.83 0.98 1.05 1.04 1.09 1.13 1.15 1.17 1.18 1.19 1.23 1.21 1.22 1.24 1.18 1.18 1.27 1.37 1.28 1.29 1.35 1.35 1.36 1.35 1.32 1.31 1.33 1.31 1.29 1.30 1.33 1.36 1.38 1.38 1.40 1.48 1.52 1.58 1.60 1.62 1.66 1.69 1.66 1.65 1.69
0.19 0.16 0.18 0.17 0.20 0.24 0.25 0.24 0.27 0.22 0.18 0.17 0.16 0.16 0.16 0.15 0.19 0.20 0.20 0.22 0.22 0.25 0.28 0.29 0.29 0.32 0.36 0.43 0.47 0.47 0.46 0.51 0.53 0.53 0.54 0.58 0.61 0.66 0.70 0.73 0.78 0.83 0.86 0.93 0.99 1.05 1.07 1.08 1.11 1.16 1.18 1.22 1.24 1.24 1.23 1.24 1.24 1.23 1.23 1.24 1.24 1.30 1.30 1.31 1.32 1.28 1.25 1.29 1.29 1.25 1.27 1.29 1.29 1.40 1.41 1.46 1.49 1.59 1.57 1.59 1.62 1.64 1.64 1.65 1.63 1.66
0.18 0.19 0.21 0.21 0.22 0.28 0.26 0.22 0.22 0.21 0.20 0.18 0.17 0.16 0.15 0.16 0.17 0.17 0.20 0.22 0.24 0.28 0.29 0.31 0.29 0.33 0.38 0.46 0.47 0.51 0.52 0.54 0.57 0.58 0.58 0.60 0.59 0.60 0.64 0.70 0.73 0.76 0.81 0.84 0.90 0.94 1.00 1.03 1.04 1.07 1.10 1.15 1.21 1.17 1.17 1.22 1.19 1.19 1.18 1.20 1.27 1.27 1.28 1.22 1.21 1.21 1.24 1.26 1.28 1.27 1.26 1.27 1.27 1.26 1.37 1.45 1.51 1.54 1.56 1.54 1.61 1.64 1.66 1.68 1.64 1.67
0.20 0.22 0.24 0.27 0.26 0.23 0.20 0.19 0.20 0.20 0.19 0.20 0.18 0.18 0.17 0.17 0.16 0.20 0.19 0.22 0.26 0.32 0.34 0.33 0.29 0.32 0.40 0.38 0.43 0.50 0.57 0.56 0.58 0.59 0.62 0.66 0.68 0.70 0.74 0.76 0.76 0.74 0.77 0.80 0.86 0.90 0.95 0.97 0.99 1.03 1.09 1.15 1.15 1.14 1.16 1.17 1.18 1.19 1.17 1.18 1.18 1.16 1.18 1.19 1.17 1.18 1.22 1.22 1.23 1.24 1.22 1.22 1.22 1.27 1.28 1.32 1.37 1.45 1.50 1.53 1.55 1.57 1.62 1.64 1.67 1.69
0.22 0.25 0.29 0.27 0.21 0.19 0.21 0.18 0.19 0.19 0.19 0.19 0.21 0.19 0.19 0.20 0.17 0.23 0.23 0.22 0.23 0.25 0.31 0.28 0.23 0.25 0.37 0.39 0.43 0.50 0.52 0.50 0.56 0.58 0.61 0.65 0.68 0.71 0.68 0.68 0.74 0.77 0.81 0.81 0.83 0.87 0.92 0.95 0.98 1.00 1.06 1.07 1.08 1.07 1.09 1.11 1.12 1.14 1.14 1.14 1.12 1.08 1.09 1.12 1.17 1.18 1.19 1.20 1.18 1.16 1.08 1.02 1.04 1.05 1.14 1.18 1.22 1.30 1.39 1.44 1.56 1.59 1.61 1.62 1.63 1.66
0.23 0.28 0.29 0.24 0.21 0.22 0.21 0.19 0.19 0.20 0.19 0.19 0.19 0.22 0.22 0.20 0.19 0.21 0.21 0.20 0.22 0.19 0.27 0.34 0.22 0.26 0.36 0.36 0.40 0.47 0.48 0.48 0.57 0.59 0.60 0.62 0.63 0.64 0.63 0.66 0.69 0.73 0.76 0.81 0.84 0.86 0.86 0.89 0.92 0.96 1.00 1.02 1.01 1.04 1.10 1.12 1.13 1.15 1.15 1.15 1.14 1.11 1.10 1.13 1.15 1.19 1.19 1.18 1.17 1.15 1.10 1.07 1.06 1.06 1.17 1.25 1.28 1.27 1.42 1.50 1.50 1.55 1.59 1.60 1.60 1.62
0.25 0.30 0.26 0.24 0.23 0.21 0.21 0.19 0.21 0.19 0.20 0.19 0.24 0.21 0.21 0.19 0.18 0.19 0.20 0.19 0.22 0.29 0.32 0.26 0.22 0.24 0.29 0.35 0.44 0.46 0.47 0.47 0.51 0.55 0.58 0.60 0.61 0.61 0.64 0.66 0.69 0.72 0.75 0.76 0.77 0.80 0.83 0.86 0.88 0.91 1.00 1.02 1.03 1.07 1.09 1.10 1.12 1.14 1.16 1.17 1.15 1.14 1.12 1.14 1.16 1.19 1.22 1.17 1.16 1.13 1.12 1.10 1.08 1.11 1.15 1.20 1.22 1.31 1.26 1.41 1.51 1.49 1.50 1.49 1.52 1.53
0.29 0.26 0.24 0.24 0.24 0.21 0.19 0.19 0.24 0.22 0.20 0.23 0.25 0.23 0.22 0.20 0.19 0.19 0.19 0.19 0.21 0.24 0.22 0.22 0.21 0.21 0.26 0.40 0.45 0.46 0.42 0.46 0.46 0.51 0.55 0.59 0.61 0.62 0.63 0.65 0.68 0.71 0.72 0.74 0.73 0.75 0.78 0.82 0.86 0.90 0.93 1.00 1.03 1.05 1.06 1.07 1.09 1.12 1.15 1.16 1.17 1.15 1.14 1.13 1.15 1.15 1.19 1.20 1.18 1.17 1.15 1.11 1.15 1.17 1.18 1.21 1.21 1.22 1.27 1.26 1.34 1.36 1.40 1.43 1.45 1.46
0.29 0.26 0.24 0.26 0.23 0.21 0.22 0.23 0.24 0.21 0.20 0.25 0.25 0.24 0.25 0.23 0.21 0.20 0.19 0.19 0.24 0.22 0.18 0.20 0.21 0.19 0.24 0.39 0.38 0.46 0.45 0.42 0.44 0.49 0.55 0.58 0.59 0.61 0.62 0.65 0.69 0.72 0.72 0.74 0.75 0.76 0.79 0.83 0.85 0.90 0.93 0.95 0.98 1.02 1.04 1.06 1.08 1.10 1.13 1.14 1.14 1.12 1.15 1.15 1.15 1.16 1.16 1.19 1.21 1.21 1.20 1.17 1.16 1.19 1.18 1.18 1.17 1.18 1.22 1.22 1.27 1.33 1.34 1.36 1.35 1.41
0.30 0.30 0.30 0.25 0.23 0.24 0.25 0.26 0.24 0.21 0.24 0.25 0.23 0.23 0.24 0.23 0.21 0.21 0.20 0.20 0.22 0.18 0.18 0.23 0.22 0.21 0.22 0.35 0.38 0.36 0.44 0.50 0.48 0.51 0.55 0.58 0.60 0.62 0.65 0.66 0.69 0.70 0.72 0.73 0.75 0.76 0.78 0.83 0.85 0.89 0.89 0.91 0.95 0.98 1.00 1.02 1.05 1.07 1.09 1.11 1.10 1.12 1.15 1.17 1.17 1.18 1.16 1.18 1.19 1.19 1.21 1.22 1.21 1.22 1.20 1.16 1.14 1.17 1.18 1.16 1.18 1.21 1.24 1.31 1.31 1.36
0.32 0.29 0.27 0.28 0.30 0.29 0.29 0.27 0.25 0.25 0.25 0.22 0.21 0.21 0.22 0.23 0.23 0.20 0.19 0.22 0.18 0.18 0.22 0.26 0.24 0.23 0.19 0.31 0.46 0.55 0.59 0.58 0.53 0.50 0.51 0.55 0.58 0.62 0.65 0.68 0.70 0.71 0.72 0.73 0.74 0.75 0.78 0.81 0.84 0.87 0.88 0.91 0.93 0.96 0.97 0.99 1.02 1.04 1.06 1.07 1.06 1.08 1.11 1.14 1.15 1.16 1.17 1.17 1.20 1.23 1.23 1.21 1.22 1.23 1.22 1.20 1.17 1.17 1.17 1.17 1.13 1.16 1.16 1.17 1.22 1.30
0.26 0.25 0.26 0.29 0.31 0.30 0.28 0.24 0.22 0.23 0.23 0.22 0.21 0.20 0.18 0.19 0.19 0.16 0.17 0.15 0.15 0.16 0.24 0.26 0.25 0.21 0.24 0.40 0.50 0.53 0.58 0.60 0.59 0.56 0.56 0.57 0.60 0.63 0.66 0.68 0.70 0.72 0.72 0.72 0.75 0.75 0.76 0.76 0.80 0.83 0.85 0.88 0.90 0.91 0.94 0.96 0.98 1.01 1.03 1.04 1.03 1.04 1.09 1.11 1.13 1.13 1.12 1.14 1.17 1.20 1.21 1.26 1.28 1.24 1.21 1.22 1.22 1.25 1.22 1.21 1.18 1.14 1.09 1.11 1.15 1.25
0.23 0.26 0.27 0.27 0.27 0.28 0.28 0.20 0.21 0.19 0.22 0.21 0.19 0.19 0.17 0.17 0.16 0.15 0.16 0.16 0.16 0.23 0.29 0.27 0.25 0.26 0.44 0.46 0.56 0.56 0.61 0.62 0.62 0.63 0.64 0.63 0.62 0.63 0.66 0.68 0.71 0.73 0.74 0.72 0.73 0.73 0.73 0.75 0.77 0.79 0.81 0.82 0.84 0.87 0.91 0.94 0.96 0.99 1.00 1.02 1.02 1.02 1.06 1.08 1.09 1.10 1.10 1.11 1.13 1.14 1.14 1.16 1.20 1.21 1.24 1.26 1.25 1.26 1.27 1.27 1.22 1.19 1.18 1.16 1.16 1.23
0.16 0.18 0.23 0.24 0.21 0.28 0.26 0.24 0.24 0.20 0.20 0.21 0.21 0.20 0.19 0.19 0.17 0.15 0.16 0.14 0.16 0.20 0.25 0.30 0.24 0.28 0.25 0.38 0.61 0.64 0.65 0.65 0.66 0.66 0.66 0.67 0.67 0.68 0.70 0.71 0.71 0.70 0.70 0.72 0.72 0.71 0.71 0.73 0.76 0.77 0.77 0.79 0.81 0.84 0.88 0.90 0.92 0.95 0.96 0.99 0.99 1.00 1.03 1.06 1.07 1.09 1.08 1.09 1.11 1.12 1.14 1.15 1.18 1.20 1.21 1.29 1.34 1.33 1.30 1.30 1.28 1.25 1.24 1.20 1.22 1.23
0.17 0.19 0.22 0.24 0.25 0.26 0.23 0.26 0.28 0.22 0.19 0.20 0.21 0.22 0.20 0.20 0.22 0.17 0.20 0.19 0.18 0.25 0.22 0.27 0.31 0.42 0.42 0.62 0.64 0.67 0.67 0.65 0.65 0.64 0.65 0.64 0.66 0.68 0.66 0.65 0.66 0.68 0.68 0.70 0.70 0.70 0.72 0.74 0.75 0.76 0.76 0.77 0.79 0.83 0.86 0.88 0.90 0.91 0.93 0.95 0.97 0.98 1.00 1.02 1.04 1.05 1.07 1.08 1.11 1.14 1.15 1.18 1.22 1.24 1.27 1.30 1.35 1.36 1.35 1.34 1.32 1.29 1.28 1.29 1.29 1.30
0.20 0.19 0.24 0.22 0.25 0.24 0.22 0.25 0.26 0.25 0.15 0.18 0.19 0.16 0.18 0.23 0.22 0.23 0.21 0.24 0.25 0.24 0.22 0.31 0.33 0.44 0.60 0.62 0.63 0.61 0.61 0.61 0.62 0.61 0.62 0.61 0.62 0.64 0.62 0.64 0.65 0.67 0.68 0.69 0.70 0.69 0.71 0.73 0.74 0.75 0.76 0.78 0.80 0.83 0.84 0.86 0.89 0.90 0.92 0.93 0.94 0.97 0.99 1.00 1.01 1.03 1.06 1.08 1.10 1.13 1.15 1.19 1.21 1.23 1.23 1.26 1.30 1.33 1.35 1.35 1.36 1.36 1.35 1.36 1.34 1.31
0.19 0.18 0.26 0.23 0.19 0.22 0.25 0.26 0.28 0.24 0.22 0.21 0.15 0.18 0.24 0.28 0.27 0.23 0.18 0.20 0.20 0.17 0.25 0.27 0.26 0.33 0.34 0.32 0.61 0.56 0.54 0.57 0.58 0.58 0.60 0.60 0.62 0.61 0.62 0.63 0.64 0.66 0.69 0.71 0.71 0.72 0.73 0.73 0.74 0.76 0.79 0.80 0.81 0.82 0.84 0.85 0.89 0.92 0.93 0.93 0.92 0.94 0.94 0.98 1.00 1.02 1.04 1.05 1.06 1.08 1.10 1.13 1.17 1.18 1.18 1.19 1.21 1.26 1.28 1.31 1.33 1.35 1.35 1.35 1.36 1.32
0.24 0.19 0.22 0.21 0.20 0.21 0.25 0.26 0.25 0.27 0.27 0.23 0.16 0.19 0.18 0.19 0.21 0.24 0.20 0.16 0.15 0.14 0.21 0.22 0.28 0.33 0.31 0.39 0.50 0.49 0.49 0.53 0.55 0.57 0.57 0.58 0.60 0.61 0.62 0.63 0.66 0.69 0.71 0.71 0.70 0.70 0.71 0.72 0.73 0.74 0.76 0.79 0.80 0.82 0.84 0.87 0.89 0.90 0.92 0.94 0.95 0.94 0.96 0.98 0.99 1.00 1.01 1.03 1.04 1.06 1.08 1.10 1.13 1.17 1.20 1.23 1.24 1.24 1.21 1.21 1.25 1.27 1.33 1.39 1.38 1.36
0.22 0.20 0.20 0.22 0.21 0.23 0.23 0.23 0.19 0.21 0.25 0.27 0.22 0.22 0.20 0.20 0.18 0.19 0.21 0.22 0.17 0.16 0.19 0.20 0.25 0.26 0.38 0.47 0.49 0.49 0.52 0.54 0.55 0.54 0.56 0.59 0.61 0.62 0.62 0.63 0.65 0.68 0.69 0.70 0.69 0.70 0.71 0.72 0.74 0.74 0.75 0.76 0.78 0.80 0.83 0.84 0.86 0.87 0.89 0.90 0.91 0.94 0.95 0.95 0.96 0.97 0.96 0.98 0.99 1.00 1.03 1.07 1.11 1.14 1.17 1.20 1.22 1.21 1.19 1.18 1.21 1.29 1.33 1.36 1.39 1.35
0.22 0.27 0.20 0.20 0.23 0.23 0.19 0.21 0.21 0.22 0.21 0.21 0.21 0.20 0.20 0.22 0.26 0.22 0.21 0.19 0.17 0.18 0.19 0.21 0.20 0.24 0.43 0.56 0.54 0.55 0.56 0.58 0.57 0.56 0.58 0.59 0.62 0.63 0.64 0.66 0.67 0.68 0.69 0.69 0.68 0.68 0.69 0.70 0.72 0.73 0.76 0.77 0.80 0.82 0.82 0.82 0.82 0.84 0.85 0.85 0.86 0.86 0.86 0.87 0.90 0.91 0.92 0.94 0.95 0.95 0.94 0.96 0.99 1.03 1.09 1.13 1.16 1.17 1.20 1.21 1.22 1.29 1.38 1.42 1.36 1.38
0.23 0.21 0.21 0.22 0.20 0.19 0.21 0.24 0.35 0.26 0.25 0.23 0.22 0.19 0.18 0.19 0.21 0.20 0.19 0.23 0.24 0.21 0.18 0.18 0.17 0.27 0.49 0.61 0.60 0.59 0.62 0.62 0.62 0.60 0.59 0.61 0.62 0.63 0.65 0.67 0.68 0.68 0.69 0.68 0.67 0.68 0.68 0.69 0.71 0.73 0.76 0.78 0.78 0.78 0.79 0.81 0.82 0.81 0.82 0.83 0.84 0.84 0.84 0.84 0.86 0.88 0.89 0.91 0.91 0.90 0.90 0.92 0.95 0.98 1.00 1.02 1.05 1.07 1.15 1.21 1.23 1.29 1.37 1.40 1.39 1.41
0.30 0.23 0.24 0.21 0.19 0.21 0.36 0.33 0.36 0.37 0.31 0.29 0.23 0.20 0.19 0.23 0.24 0.20 0.17 0.18 0.22 0.23 0.26 0.23 0.20 0.31 0.55 0.59 0.60 0.60 0.61 0.62 0.62 0.61 0.59 0.60 0.61 0.62 0.66 0.68 0.70 0.70 0.68 0.67 0.66 0.66 0.67 0.69 0.71 0.72 0.74 0.75 0.76 0.76 0.77 0.77 0.77 0.78 0.79 0.80 0.81 0.81 0.82 0.84 0.84 0.85 0.85 0.84 0.84 0.84 0.86 0.88 0.90 0.92 0.93 0.93 0.97 1.02 1.07 1.16 1.26 1.31 1.34 1.42 1.40 1.47
0.30 0.26 0.24 0.25 0.31 0.37 0.37 0.37 0.35 0.35 0.32 0.26 0.29 0.29 0.22 0.20 0.21 0.20 0.19 0.22 0.17 0.22 0.17 0.20 0.19 0.34 0.52 0.57 0.58 0.60 0.60 0.61 0.62 0.62 0.59 0.60 0.60 0.63 0.66 0.68 0.68 0.67 0.67 0.66 0.66 0.66 0.67 0.68 0.71 0.72 0.73 0.73 0.73 0.74 0.75 0.75 0.75 0.76 0.77 0.77 0.78 0.77 0.78 0.80 0.81 0.81 0.80 0.80 0.80 0.81 0.81 0.82 0.83 0.84 0.87 0.88 0.92 0.95 1.02 1.08 1.15 1.24 1.29 1.36 1.41 1.39
0.22 0.35 0.30 0.26 0.25 0.27 0.28 0.29 0.29 0.34 0.31 0.27 0.27 0.29 0.30 0.31 0.28 0.28 0.28 0.26 0.19 0.20 0.18 0.18 0.16 0.27 0.42 0.54 0.56 0.57 0.57 0.57 0.58 0.62 0.62 0.59 0.61 0.65 0.67 0.67 0.67 0.66 0.66 0.66 0.65 0.66 0.67 0.67 0.67 0.69 0.70 0.71 0.72 0.73 0.73 0.73 0.74 0.74 0.75 0.75 0.75 0.75 0.77 0.78 0.78 0.77 0.77 0.77 0.76 0.76 0.76 0.76 0.78 0.79 0.80 0.83 0.87 0.91 0.97 1.03 1.08 1.14 1.19 1.26 1.31 1.35
0.29 0.34 0.33 0.23 0.20 0.17 0.17 0.18 0.21 0.23 0.27 0.37 0.35 0.29 0.28 0.26 0.25 0.23 0.22 0.25 0.20 0.25 0.24 0.20 0.26 0.36 0.43 0.49 0.50 0.52 0.53 0.54 0.58 0.61 0.62 0.62 0.62 0.63 0.65 0.66 0.65 0.64 0.64 0.65 0.66 0.66 0.65 0.66 0.67 0.68 0.69 0.69 0.69 0.69 0.71 0.72 0.73 0.74 0.75 0.75 0.76 0.75 0.76 0.76 0.77 0.76 0.76 0.76 0.74 0.73 0.73 0.74 0.75 0.76 0.77 0.80 0.83 0.86 0.92 0.97 1.03 1.09 1.12 1.17 1.20 1.27
0.31 0.39 0.36 0.36 0.25 0.21 0.24 0.31 0.39 0.36 0.33 0.26 0.28 0.30 0.29 0.31 0.31 0.29 0.25 0.24 0.21 0.26 0.22 0.26 0.32 0.33 0.35 0.42 0.45 0.49 0.51 0.51 0.53 0.57 0.58 0.59 0.61 0.64 0.65 0.64 0.63 0.63 0.64 0.64 0.64 0.65 0.65 0.65 0.65 0.65 0.66 0.65 0.66 0.68 0.69 0.71 0.72 0.73 0.74 0.73 0.74 0.75 0.75 0.76 0.76 0.76 0.75 0.75 0.74 0.72 0.72 0.72 0.73 0.75 0.77 0.79 0.81 0.86 0.91 0.96 1.01 1.04 1.08 1.13 1.15 1.18
0.33 0.31 0.35 0.35 0.34 0.36 0.39 0.38 0.37 0.37 0.32 0.32 0.30 0.30 0.32 0.31 0.31 0.29 0.26 0.26 0.29 0.26 0.19 0.34 0.32 0.28 0.34 0.40 0.45 0.47 0.50 0.52 0.54 0.55 0.56 0.58 0.60 0.62 0.63 0.63 0.63 0.62 0.63 0.64 0.63 0.63 0.63 0.64 0.65 0.64 0.63 0.63 0.64 0.65 0.67 0.68 0.69 0.71 0.72 0.71 0.73 0.74 0.75 0.76 0.76 0.76 0.76 0.75 0.73 0.73 0.73 0.74 0.75 0.75 0.77 0.80 0.82 0.85 0.91 0.96 1.01 1.03 1.06 1.11 1.13 1.15
0.32 0.28 0.37 0.37 0.36 0.40 0.41 0.40 0.41 0.36 0.35 0.36 0.36 0.34 0.32 0.34 0.33 0.30 0.34 0.34 0.34 0.24 0.21 0.34 0.35 0.30 0.37 0.42 0.47 0.50 0.53 0.53 0.54 0.55 0.58 0.60 0.61 0.62 0.62 0.61 0.61 0.61 0.62 0.62 0.62 0.63 0.63 0.62 0.62 0.63 0.64 0.64 0.64 0.64 0.64 0.65 0.66 0.68 0.70 0.70 0.71 0.72 0.73 0.76 0.76 0.76 0.76 0.75 0.74 0.74 0.75 0.76 0.77 0.77 0.77 0.79 0.80 0.82 0.85 0.90 0.97 1.05 1.08 1.09 1.10 1.14
0.34 0.32 0.37 0.38 0.37 0.39 0.41 0.41 0.40 0.36 0.35 0.35 0.35 0.36 0.38 0.36 0.35 0.34 0.33 0.36 0.34 0.33 0.38 0.37 0.37 0.35 0.40 0.43 0.47 0.51 0.57 0.58 0.59 0.61 0.61 0.59 0.59 0.60 0.61 0.61 0.61 0.61 0.60 0.59 0.60 0.61 0.62 0.63 0.64 0.64 0.65 0.65 0.65 0.64 0.63 0.64 0.64 0.65 0.65 0.66 0.67 0.69 0.71 0.73 0.73 0.73 0.73 0.74 0.75 0.76 0.77 0.78 0.78 0.77 0.77 0.77 0.77 0.79 0.82 0.85 0.91 0.96 1.01 1.05 1.08 1.12
0.34 0.32 0.39 0.39 0.35 0.37 0.40 0.41 0.40 0.38 0.36 0.32 0.37 0.38 0.39 0.38 0.37 0.38 0.37 0.37 0.37 0.36 0.39 0.37 0.34 0.33 0.43 0.50 0.51 0.56 0.60 0.61 0.61 0.59 0.59 0.60 0.60 0.61 0.61 0.62 0.61 0.60 0.60 0.60 0.60 0.61 0.63 0.64 0.65 0.65 0.65 0.65 0.65 0.65 0.64 0.64 0.64 0.64 0.64 0.65 0.66 0.68 0.71 0.72 0.71 0.70 0.71 0.72 0.74 0.76 0.77 0.77 0.77 0.77 0.76 0.76 0.77 0.78 0.79 0.82 0.86 0.90 0.95 0.99 1.02 1.05
0.35 0.35 0.41 0.38 0.30 0.33 0.40 0.39 0.38 0.38 0.37 0.34 0.35 0.37 0.37 0.37 0.33 0.36 0.34 0.39 0.36 0.33 0.36 0.35 0.31 0.32 0.42 0.50 0.53 0.56 0.57 0.57 0.56 0.57 0.58 0.59 0.60 0.62 0.61 0.60 0.60 0.60 0.60 0.60 0.61 0.62 0.63 0.64 0.66 0.65 0.65 0.65 0.65 0.66 0.65 0.64 0.64 0.64 0.64 0.65 0.66 0.68 0.70 0.69 0.69 0.69 0.70 0.71 0.73 0.75 0.76 0.76 0.76 0.76 0.76 0.75 0.75 0.76 0.79 0.80 0.81 0.84 0.90 0.95 0.98 1.01
0.33 0.34 0.32 0.34 0.28 0.30 0.39 0.41 0.39 0.37 0.34 0.29 0.32 0.37 0.41 0.40 0.41 0.42 0.43 0.45 0.43 0.43 0.36 0.31 0.32 0.41 0.45 0.51 0.50 0.52 0.55 0.56 0.57 0.58 0.59 0.60 0.61 0.61 0.61 0.60 0.60 0.61 0.61 0.62 0.63 0.63 0.64 0.64 0.66 0.66 0.66 0.65 0.66 0.66 0.67 0.66 0.65 0.65 0.65 0.65 0.66 0.68 0.68 0.68 0.68 0.68 0.68 0.70 0.71 0.72 0.74 0.75 0.74 0.74 0.75 0.75 0.74 0.75 0.76 0.76 0.76 0.76 0.81 0.87 0.94 0.98
0.36 0.34 0.33 0.36 0.27 0.30 0.37 0.38 0.40 0.33 0.24 0.27 0.45 0.50 0.48 0.43 0.43 0.40 0.40 0.43 0.48 0.48 0.43 0.46 0.44 0.47 0.49 0.50 0.50 0.51 0.53 0.56 0.58 0.62 0.64 0.62 0.61 0.61 0.61 0.63 0.63 0.64 0.64 0.65 0.65 0.65 0.66 0.67 0.68 0.68 0.68 0.68 0.69 0.69 0.69 0.68 0.68 0.68 0.67 0.66 0.67 0.66 0.66 0.66 0.66 0.67 0.68 0.69 0.70 0.71 0.72 0.74 0.74 0.73 0.74 0.75 0.75 0.74 0.73 0.73 0.74 0.76 0.78 0.81 0.86 0.90
0.37 0.38 0.36 0.38 0.31 0.30 0.36 0.37 0.29 0.24 0.28 0.44 0.52 0.53 0.53 0.51 0.50 0.46 0.46 0.48 0.49 0.50 0.48 0.46 0.47 0.48 0.50 0.53 0.55 0.56 0.58 0.61 0.63 0.63 0.63 0.65 0.64 0.63 0.63 0.64 0.65 0.65 0.64 0.65 0.65 0.66 0.68 0.69 0.69 0.69 0.69 0.69 0.69 0.70 0.70 0.69 0.71 0.69 0.68 0.67 0.66 0.66 0.65 0.65 0.65 0.66 0.67 0.67 0.69 0.70 0.71 0.72 0.72 0.72 0.73 0.74 0.75 0.74 0.73 0.73 0.73 0.74 0.77 0.79 0.79 0.82
0.38 0.35 0.35 0.34 0.36 0.36 0.32 0.31 0.22 0.26 0.41 0.48 0.50 0.53 0.56 0.54 0.52 0.48 0.44 0.47 0.49 0.49 0.49 0.46 0.48 0.52 0.55 0.56 0.57 0.59 0.60 0.62 0.64 0.65 0.65 0.66 0.66 0.65 0.63 0.63 0.64 0.64 0.63 0.65 0.65 0.66 0.68 0.69 0.70 0.70 0.70 0.71 0.71 0.71 0.71 0.70 0.71 0.69 0.68 0.68 0.66 0.65 0.65 0.64 0.63 0.64 0.66 0.66 0.68 0.69 0.70 0.70 0.71 0.72 0.73 0.74 0.74 0.73 0.72 0.72 0.72 0.72 0.75 0.77 0.79 0.83
0.43 0.40 0.36 0.32 0.38 0.28 0.31 0.31 0.30 0.40 0.38 0.41 0.42 0.45 0.48 0.43 0.44 0.40 0.33 0.41 0.50 0.52 0.51 0.49 0.49 0.51 0.53 0.56 0.59 0.59 0.60 0.59 0.55 0.57 0.64 0.65 0.66 0.66 0.65 0.64 0.65 0.65 0.65 0.66 0.67 0.67 0.70 0.71 0.71 0.71 0.72 0.72 0.72 0.71 0.71 0.72 0.71 0.69 0.68 0.67 0.66 0.66 0.65 0.65 0.63 0.63 0.65 0.66 0.68 0.69 0.70 0.71 0.71 0.71 0.72 0.73 0.72 0.72 0.72 0.72 0.72 0.74 0.76 0.76 0.79 0.82
0.50 0.38 0.37 0.30 0.32 0.35 0.29 0.26 0.28 0.28 0.24 0.31 0.42 0.50 0.55 0.55 0.54 0.51 0.42 0.39 0.52 0.53 0.54 0.52 0.51 0.51 0.52 0.55 0.56 0.58 0.58 0.52 0.47 0.50 0.58 0.62 0.64 0.64 0.65 0.65 0.66 0.66 0.66 0.66 0.67 0.67 0.69 0.70 0.70 0.70 0.71 0.71 0.71 0.72 0.73 0.73 0.72 0.70 0.68 0.67 0.67 0.66 0.66 0.65 0.64 0.65 0.66 0.67 0.69 0.70 0.70 0.71 0.71 0.71 0.71 0.72 0.71 0.71 0.72 0.75 0.76 0.75 0.77 0.75 0.76 0.78
0.43 0.44 0.40 0.33 0.30 0.30 0.29 0.23 0.23 0.22 0.28 0.39 0.43 0.49 0.54 0.56 0.54 0.53 0.40 0.33 0.48 0.53 0.55 0.54 0.52 0.52 0.53 0.53 0.54 0.56 0.51 0.44 0.44 0.50 0.57 0.61 0.62 0.64 0.63 0.64 0.65 0.65 0.65 0.66 0.66 0.66 0.67 0.68 0.68 0.68 0.69 0.69 0.69 0.71 0.73 0.73 0.71 0.69 0.67 0.67 0.66 0.66 0.64 0.63 0.63 0.64 0.66 0.68 0.70 0.70 0.70 0.70 0.70 0.71 0.71 0.71 0.72 0.72 0.71 0.73 0.75 0.77 0.79 0.77 0.78 0.79
0.37 0.36 0.35 0.29 0.29 0.29 0.28 0.25 0.24 0.26 0.26 0.38 0.46 0.50 0.53 0.58 0.55 0.47 0.27 0.29 0.46 0.53 0.55 0.55 0.53 0.53 0.55 0.56 0.56 0.54 0.48 0.43 0.45 0.52 0.61 0.63 0.64 0.65 0.64 0.63 0.63 0.64 0.65 0.66 0.67 0.66 0.66 0.66 0.65 0.64 0.64 0.65 0.66 0.69 0.69 0.69 0.68 0.67 0.65 0.65 0.65 0.64 0.62 0.62 0.63 0.65 0.67 0.69 0.70 0.71 0.70 0.70 0.70 0.70 0.70 0.69 0.70 0.71 0.71 0.73 0.74 0.76 0.78 0.78 0.78 0.79
0.29 0.31 0.32 0.28 0.29 0.29 0.28 0.28 0.28 0.29 0.39 0.45 0.46 0.49 0.52 0.55 0.49 0.31 0.24 0.38 0.52 0.55 0.56 0.56 0.56 0.57 0.57 0.56 0.57 0.52 0.55 0.56 0.58 0.61 0.63 0.64 0.63 0.63 0.64 0.65 0.65 0.65 0.64 0.64 0.64 0.64 0.63 0.63 0.62 0.61 0.62 0.63 0.65 0.66 0.67 0.66 0.64 0.63 0.63 0.64 0.63 0.62 0.63 0.64 0.65 0.65 0.66 0.68 0.69 0.70 0.70 0.70 0.70 0.69 0.70 0.70 0.70 0.70 0.70 0.70 0.70 0.72 0.75 0.76 0.78 0.78
0.27 0.28 0.28 0.29 0.26 0.26 0.27 0.25 0.25 0.29 0.40 0.47 0.50 0.51 0.53 0.43 0.27 0.24 0.45 0.55 0.53 0.52 0.54 0.56 0.56 0.58 0.58 0.57 0.57 0.56 0.58 0.60 0.61 0.63 0.62 0.62 0.62 0.62 0.63 0.63 0.64 0.63 0.64 0.64 0.64 0.63 0.61 0.60 0.60 0.60 0.60 0.62 0.62 0.63 0.64 0.64 0.62 0.61 0.61 0.61 0.60 0.62 0.65 0.65 0.64 0.64 0.64 0.66 0.68 0.68 0.69 0.69 0.70 0.71 0.70 0.71 0.71 0.70 0.70 0.71 0.71 0.70 0.72 0.74 0.75 0.76
0.28 0.24 0.24 0.23 0.26 0.27 0.27 0.23 0.20 0.17 0.33 0.48 0.49 0.45 0.50 0.36 0.36 0.45 0.49 0.52 0.54 0.52 0.52 0.54 0.55 0.56 0.56 0.54 0.56 0.56 0.56 0.57 0.57 0.58 0.58 0.59 0.59 0.58 0.59 0.59 0.59 0.59 0.58 0.58 0.57 0.58 0.58 0.56 0.56 0.56 0.57 0.58 0.59 0.60 0.61 0.60 0.58 0.58 0.59 0.58 0.59 0.62 0.63 0.64 0.64 0.63 0.63 0.64 0.65 0.66 0.66 0.68 0.69 0.69 0.70 0.69 0.69 0.69 0.69 0.71 0.71 0.70 0.71 0.71 0.72 0.73
0.35 0.25 0.25 0.25 0.30 0.21 0.20 0.18 0.19 0.32 0.40 0.50 0.46 0.34 0.43 0.47 0.50 0.51 0.50 0.47 0.53 0.54 0.53 0.53 0.55 0.56 0.56 0.54 0.53 0.53 0.54 0.54 0.55 0.56 0.56 0.56 0.56 0.57 0.58 0.58 0.57 0.57 0.55 0.55 0.55 0.54 0.54 0.52 0.52 0.52 0.52 0.53 0.53 0.53 0.54 0.54 0.52 0.53 0.53 0.53 0.57 0.59 0.61 0.62 0.63 0.63 0.62 0.62 0.62 0.63 0.64 0.65 0.66 0.67 0.68 0.68 0.68 0.68 0.68 0.69 0.70 0.71 0.70 0.70 0.70 0.71
0.35 0.30 0.33 0.25 0.33 0.28 0.26 0.29 0.36 0.42 0.46 0.50 0.51 0.48 0.50 0.53 0.54 0.54 0.53 0.52 0.51 0.52 0.56 0.54 0.54 0.55 0.56 0.55 0.54 0.53 0.53 0.54 0.54 0.55 0.53 0.54 0.54 0.54 0.54 0.54 0.53 0.51 0.49 0.47 0.46 0.47 0.46 0.45 0.45 0.44 0.44 0.44 0.45 0.46 0.47 0.47 0.46 0.46 0.46 0.49 0.51 0.52 0.54 0.57 0.59 0.60 0.60 0.60 0.60 0.60 0.61 0.62 0.63 0.64 0.66 0.67 0.67 0.65 0.65 0.66 0.68 0.67 0.69 0.69 0.69 0.69
0.40 0.40 0.41 0.35 0.32 0.39 0.43 0.42 0.44 0.44 0.46 0.47 0.51 0.52 0.51 0.52 0.55 0.55 0.53 0.51 0.53 0.55 0.56 0.54 0.55 0.54 0.55 0.56 0.52 0.53 0.52 0.53 0.53 0.52 0.52 0.51 0.50 0.48 0.46 0.45 0.44 0.44 0.42 0.42 0.41 0.40 0.38 0.38 0.37 0.37 0.37 0.38 0.40 0.40 0.40 0.41 0.41 0.40 0.42 0.44 0.45 0.47 0.48 0.51 0.53 0.55 0.56 0.57 0.58 0.58 0.58 0.58 0.60 0.61 0.62 0.63 0.65 0.65 0.65 0.64 0.65 0.65 0.67 0.67 0.67 0.67
0.39 0.40 0.37 0.31 0.37 0.30 0.25 0.40 0.40 0.41 0.45 0.47 0.48 0.52 0.53 0.53 0.54 0.56 0.55 0.55 0.55 0.57 0.57 0.58 0.56 0.54 0.54 0.53 0.52 0.51 0.49 0.49 0.47 0.46 0.44 0.41 0.39 0.39 0.38 0.37 0.36 0.36 0.34 0.33 0.35 0.35 0.34 0.33 0.32 0.33 0.33 0.34 0.37 0.37 0.37 0.38 0.38 0.39 0.40 0.39 0.40 0.42 0.44 0.46 0.48 0.50 0.52 0.52 0.53 0.55 0.56 0.55 0.56 0.57 0.58 0.59 0.60 0.61 0.63 0.64 0.63 0.63 0.64 0.65 0.65 0.66
0.30 0.43 0.34 0.33 0.34 0.28 0.29 0.38 0.42 0.45 0.47 0.49 0.49 0.47 0.47 0.51 0.54 0.57 0.57 0.58 0.58 0.59 0.58 0.56 0.56 0.53 0.52 0.50 0.49 0.46 0.44 0.42 0.39 0.36 0.35 0.34 0.33 0.32 0.31 0.30 0.30 0.30 0.30 0.31 0.31 0.32 0.32 0.31 0.31 0.31 0.31 0.32 0.34 0.36 0.36 0.36 0.36 0.37 0.38 0.37 0.37 0.39 0.40 0.41 0.42 0.45 0.47 0.48 0.50 0.50 0.52 0.53 0.55 0.55 0.56 0.57 0.56 0.56 0.57 0.60 0.61 0.60 0.61 0.62 0.63 0.64
0.36 0.38 0.28 0.32 0.29 0.33 0.39 0.42 0.43 0.43 0.44 0.46 0.48 0.49 0.51 0.52 0.52 0.53 0.55 0.56 0.55 0.54 0.53 0.53 0.51 0.47 0.46 0.43 0.41 0.38 0.35 0.33 0.31 0.29 0.27 0.28 0.27 0.26 0.26 0.27 0.28 0.27 0.27 0.27 0.29 0.31 0.31 0.31 0.31 0.31 0.31 0.32 0.34 0.35 0.35 0.35 0.35 0.36 0.36 0.35 0.36 0.37 0.36 0.36 0.37 0.40 0.43 0.45 0.47 0.47 0.49 0.50 0.52 0.53 0.54 0.55 0.57 0.57 0.57 0.56 0.57 0.58 0.59 0.63 0.66 0.66
0.34 0.28 0.34 0.31 0.25 0.25 0.26 0.33 0.39 0.30 0.30 0.39 0.45 0.49 0.51 0.53 0.53 0.52 0.52 0.51 0.49 0.46 0.45 0.43 0.43 0.42 0.39 0.36 0.32 0.29 0.25 0.24 0.24 0.23 0.21 0.21 0.21 0.22 0.23 0.24 0.25 0.24 0.24 0.25 0.26 0.29 0.30 0.31 0.31 0.31 0.31 0.33 0.35 0.35 0.34 0.34 0.35 0.36 0.35 0.34 0.35 0.37 0.35 0.34 0.35 0.37 0.38 0.40 0.41 0.45 0.46 0.47 0.49 0.51 0.52 0.53 0.54 0.55 0.57 0.59 0.59 0.59 0.58 0.59 0.62 0.66
0.32 0.34 0.33 0.27 0.26 0.25 0.35 0.39 0.43 0.42 0.40 0.43 0.45 0.49 0.52 0.53 0.51 0.48 0.46 0.45 0.44 0.43 0.41 0.37 0.33 0.30 0.27 0.25 0.24 0.22 0.21 0.21 0.21 0.21 0.19 0.18 0.19 0.20 0.22 0.23 0.21 0.20 0.20 0.22 0.23 0.25 0.27 0.29 0.29 0.30 0.30 0.31 0.33 0.34 0.34 0.33 0.34 0.34 0.34 0.34 0.35 0.36 0.35 0.35 0.34 0.35 0.36 0.37 0.38 0.40 0.44 0.46 0.47 0.49 0.50 0.51 0.51 0.52 0.54 0.56 0.58 0.59 0.60 0.61 0.62 0.63
Wind_Speed
27 26 27 27 27 27 26 26 24 19 19 20 21 21 19 21 21 19 18 20 23 22 20 19 17 16 15 13 13 12 11 10 10 10 11 13 14 15 15 15 13 12 10 10 10 9 9 9 9 8 9 9 9 10 9 9 10 10 11 11 11 11 11 11 12 13 14 14 15 16 16 17 18 18 18 19 19 19 19 19 20 19 20 20 20 21
28 27 28 28 27 27 26 26 23 20 20 20 21 20 20 21 21 20 19 20 22 21 19 19 18 16 15 14 13 13 12 10 10 10 10 12 14 15 14 13 12 11 11 10 9 9 9 9 9 9 9 10 10 10 10 9 9 9 10 10 11 11 11 11 12 12 13 14 14 14 15 16 17 18 18 18 19 19 20 19 19 19 20 20 20 21
28 28 28 29 28 27 26 26 24 21 21 21 20 20 20 20 20 19 19 20 21 20 20 20 19 17 16 15 14 13 12 12 11 10 10 11 13 14 13 11 11 11 10 9 9 9 9 9 9 9 10 10 10 10 10 10 10 10 11 11 10 10 10 11 12 12 13 13 13 13 14 15 16 17 18 19 19 19 19 19 19 19 20 20 20 21
27 27 28 28 27 27 26 26 26 23 22 22 21 21 21 21 20 20 20 21 20 20 20 20 18 17 17 17 16 14 14 13 11 10 9 10 13 13 13 12 11 10 9 8 8 8 8 8 8 8 9 10 10 10 10 10 11 11 12 12 12 12 12 13 13 14 13 13 13 13 14 14 15 16 17 18 19 19 19 18 18 19 20 20 20 21
26 26 27 27 27 27 27 26 26 24 23 23 23 21 21 23 21 19 21 21 19 19 20 20 18 17 17 17 16 16 15 14 12 11 10 11 13 13 12 11 10 9 8 8 8 8 8 7 8 8 9 10 10 10 10 11 11 12 12 12 13 13 13 14 14 14 14 14 14 14 14 14 15 15 16 17 19 19 19 18 18 18 19 19 20 20
26 25 27 27 27 28 28 27 27 25 23 23 24 22 20 23 21 18 21 22 19 20 22 21 19 17 17 17 17 17 16 15 13 11 10 10 12 12 11 10 9 8 8 8 8 8 8 8 8 8 9 9 10 10 10 10 11 12 12 12 12 12 13 13 14 14 14 14 15 14 14 14 15 15 15 16 18 18 18 19 18 18 18 18 19 20
26 26 26 27 28 29 28 27 27 27 24 23 25 24 20 21 22 20 22 22 19 19 22 23 20 17 17 17 17 17 16 15 14 12 11 10 11 11 10 10 9 9 8 8 8 8 8 8 8 8 9 9 10 10 10 11 11 12 12 12 12 12 13 13 13 14 15 15 15 15 15 15 15 16 15 16 17 17 18 18 18 18 18 18 18 20
26 27 27 28 28 28 27 26 27 28 24 21 24 26 22 21 22 22 22 22 18 17 20 23 21 18 18 18 18 18 17 15 15 14 12 11 11 10 10 9 9 9 9 9 8 8 8 9 9 9 10 10 11 11 11 11 11 11 12 12 12 13 13 13 13 14 15 15 15 15 16 16 17 17 16 16 17 17 18 18 18 18 18 18 19 19
26 27 27 28 28 26 26 26 26 28 25 20 21 25 24 21 22 22 22 21 19 18 20 24 23 19 18 18 18 19 18 16 16 15 14 12 12 10 10 9 9 8 8 8 8 8 7 8 8 9 10 10 11 11 11 11 11 11 12 12 13 13 14 14 13 14 15 16 16 16 17 18 18 18 17 17 17 17 18 18 19 19 19 19 20 21
25 27 27 27 26 25 25 25 25 28 25 20 21 23 23 22 21 21 21 21 20 21 22 24 25 21 17 18 19 20 20 18 17 17 15 13 12 11 10 9 9 8 8 8 7 7 7 7 8 8 9 10 10 11 11 11 12 12 12 13 13 13 14 14 14 15 15 16 17 18 19 20 20 19 19 19 19 19 19 19 20 20 19 20 21 21
23 25 26 26 26 24 24 24 25 27 24 21 22 22 22 22 21 21 21 20 20 22 22 23 25 22 17 18 19 19 19 19 18 17 16 14 12 11 10 10 9 9 8 8 8 7 7 8 8 8 9 9 9 10 10 11 12 12 13 13 14 14 15 15 15 16 17 17 18 19 20 21 22 21 21 20 20 20 20 20 20 20 20 20 21 21
23 25 25 25 25 24 24 23 24 25 24 23 23 23 23 21 21 21 22 21 21 22 22 22 24 22 18 18 19 19 18 18 18 18 16 14 13 11 11 10 9 9 9 9 8 8 8 8 8 8 9 9 10 10 11 11 12 13 13 14 15 15 16 16 16 17 18 18 19 20 21 22 23 23 22 22 22 22 22 22 21 21 21 21 21 20
23 25 25 25 25 25 24 23 24 25 25 25 24 25 25 22 21 22 23 23 22 19 19 21 23 21 17 16 19 19 18 18 17 17 16 14 13 12 11 10 10 10 9 9 9 9 9 9 9 9 9 10 10 11 12 13 13 13 14 15 15 16 17 17 18 18 19 20 20 20 21 22 23 24 23 23 23 23 22 22 22 22 21 21 21 21
22 24 26 26 25 27 26 24 24 25 26 27 26 26 26 23 22 23 23 23 23 19 17 20 22 19 16 16 18 19 19 18 17 17 16 15 13 12 11 10 10 10 10 10 9 9 9 9 9 10 10 10 11 12 13 13 14 14 15 15 16 17 17 18 19 20 20 21 21 22 22 23 24 24 24 24 24 24 23 23 23 22 22 22 22 22
22 22 25 27 25 27 28 25 24 25 26 27 26 26 26 24 22 22 22 23 23 19 18 19 20 19 18 18 18 19 19 18 17 17 16 15 14 13 11 10 10 10 10 10 10 10 9 9 10 10 11 11 12 13 13 14 14 15 15 16 17 18 18 19 19 20 21 22 22 23 23 24 24 24 24 24 24 25 24 24 24 23 23 23 23 23
23 20 23 26 24 26 29 26 24 24 25 26 26 26 26 24 21 19 19 20 20 19 18 19 17 15 16 17 18 20 19 18 17 17 16 14 14 13 11 11 10 10 10 10 10 10 10 10 11 11 12 12 13 13 14 14 15 16 16 17 18 18 19 19 20 21 21 22 22 23 23 23 23 24 24 24 24 25 24 24 24 24 24 24 24 24
22 19 21 25 23 24 28 27 25 25 23 24 26 27 25 23 21 19 17 17 19 19 18 19 18 16 16 17 19 21 19 19 18 17 16 15 14 13 11 11 11 11 11 11 11 11 11 11 11 12 12 13 13 13 14 15 15 16 17 17 18 18 19 19 20 20 21 21 21 21 20 20 21 21 22 23 24 24 24 25 25 25 25 25 25 25
20 18 20 24 23 23 25 25 26 26 23 23 26 27 24 21 20 20 20 19 21 20 17 19 21 20 19 18 20 22 20 20 19 17 16 15 13 13 12 12 12 12 11 11 11 11 11 11 12 12 12 13 13 13 14 14 15 16 16 17 17 18 18 18 19 19 19 19 19 18 18 18 18 18 19 20 21 22 23 24 25 26 26 26 26 25
20 18 18 23 24 22 23 24 25 26 24 23 25 26 25 22 21 22 21 21 22 20 18 20 22 21 21 19 21 22 21 21 19 18 17 15 14 13 13 12 12 12 12 11 11 11 11 12 12 12 13 13 13 13 13 14 14 15 15 15 16 16 17 17 17 17 17 17 17 17 18 18 17 17 17 17 18 19 20 22 23 25 26 27 26 26
21 18 17 22 23 22 23 24 24 25 25 24 24 25 25 23 21 22 21 20 21 20 18 20 21 20 19 19 21 22 22 21 20 18 17 15 14 14 13 13 12 12 12 11 12 12 12 12 12 12 12 12 12 13 13 13 14 14 14 14 15 15 15 16 16 16 16 16 17 17 18 17 17 17 17 17 18 19 20 21 22 24 26 27 27 26
21 19 17 20 22 22 24 24 24 25 26 25 24 25 26 23 21 21 21 20 20 19 18 19 19 19 17 17 20 22 21 21 19 18 17 15 14 14 13 13 12 12 12 12 12 12 12 12 12 12 12 12 12 12 13 13 13 13 13 14 14 14 14 14 14 15 16 16 17 17 18 18 17 17 17 17 18 18 19 20 21 22 24 26 26 25
21 20 18 20 23 23 23 22 21 22 24 25 24 25 26 24 22 22 20 20 19 18 18 18 17 16 15 16 18 19 19 19 18 18 17 15 15 14 13 13 12 12 12 12 12 12 12 12 11 11 11 11 11 12 12 12 13 13 13 13 14 14 14 14 14 15 16 16 16 17 17 17 17 17 18 18 18 19 19 20 20 20 20 22 23 23
19 19 19 20 23 22 20 20 20 20 21 22 22 23 25 24 24 22 20 20 20 17 16 17 15 14 14 16 17 17 17 18 18 17 16 15 15 14 13 12 11 11 11 11 12 11 11 11 11 11 11 11 11 11 12 12 12 12 13 13 14 14 14 15 15 15 15 15 15 16 16 16 17 18 18 18 19 19 19 19 20 19 18 19 20 21
19 19 20 20 20 19 18 19 20 20 21 22 21 22 24 24 23 21 18 19 20 18 17 16 15 14 15 16 16 17 17 16 17 16 15 15 15 14 13 12 11 11 11 11 11 11 11 10 11 11 11 11 11 12 12 12 13 13 13 13 14 14 15 15 15 15 15 15 15 15 16 16 17 18 18 18 19 19 19 19 20 19 19 19 19 21
19 19 20 20 20 19 19 21 21 21 22 22 21 21 21 22 22 20 17 17 18 19 18 17 14 13 15 17 17 17 16 16 15 15 15 15 15 13 12 11 11 11 11 10 10 10 10 10 10 10 10 11 11 12 12 12 13 13 13 14 14 14 14 15 15 15 15 15 15 16 16 17 17 18 18 19 19 19 19 19 19 20 20 20 21 21
19 17 19 21 22 22 22 22 22 22 22 21 20 20 20 21 22 20 17 17 17 17 18 16 13 12 15 17 17 16 16 15 15 14 14 14 14 13 12 11 11 11 11 10 10 10 10 10 10 10 10 11 11 12 12 12 13 13 13 14 14 14 14 15 15 15 15 15 16 16 16 17 17 18 18 19 19 20 20 19 19 19 20 20 21 22
18 16 16 17 18 19 18 17 18 20 20 20 20 20 20 19 20 20 19 17 16 17 16 14 13 14 16 18 17 16 15 15 15 15 14 14 13 12 11 11 11 11 11 10 10 10 10 10 10 10 11 11 11 12 12 13 13 14 14 14 14 14 15 15 15 15 15 15 16 16 17 17 17 18 18 19 19 19 19 19 19 19 20 20 21 22
18 16 15 14 15 15 15 15 17 18 18 18 19 19 19 18 18 19 18 15 14 16 14 12 13 15 17 18 17 16 15 14 15 15 15 14 13 11 11 11 11 10 10 10 11 10 10 11 11 11 11 12 12 13 13 13 13 14 14 14 14 14 15 15 15 15 15 16 16 17 17 18 18 18 18 18 18 19 19 19 19 20 20 20 21 22
18 16 16 15 16 15 15 16 17 18 17 16 17 17 17 17 17 17 15 13 13 13 12 12 14 14 16 17 16 15 15 14 14 14 14 13 12 12 12 11 10 10 10 11 11 10 11 11 12 12 12 12 13 13 13 13 13 14 14 14 14 14 14 15 15 15 16 16 17 17 18 18 18 18 18 18 18 18 18 18 19 19 20 20 21 22
17 16 17 17 16 15 16 17 17 18 18 16 15 15 15 15 15 15 13 12 11 11 10 12 13 12 13 15 14 14 14 13 13 13 13 12 11 11 11 10 10 10 10 11 11 11 11 12 12 12 13 13 13 14 14 14 14 14 14 15 15 15 15 15 16 16 16 17 18 18 18 18 18 19 19 19 19 19 18 18 18 19 19 20 21 22
18 18 18 17 15 14 15 17 17 17 17 16 14 14 14 14 14 13 13 12 12 11 11 12 12 11 12 13 13 14 14 13 13 12 11 11 11 11 10 10 10 11 11 11 11 11 12 12 12 13 13 13 14 14 14 14 15 15 15 15 16 16 16 16 16 17 17 18 18 19 19 19 19 19 19 19 19 19 19 19 19 19 20 20 21 21
19 19 19 18 15 13 15 17 17 17 16 15 13 12 13 14 14 13 13 13 13 14 14 13 13 13 13 13 14 14 14 13 13 12 11 11 11 11 10 10 11 11 12 12 12 12 12 13 13 14 14 14 15 15 15 15 16 16 16 16 16 16 17 17 17 17 18 18 19 19 19 20 20 20 20 20 20 20 20 20 20 20 20 20 20 21
19 19 19 18 15 14 16 17 16 17 16 13 11 12 12 13 14 13 12 12 13 14 14 13 13 13 14 14 14 14 13 13 12 11 12 12 12 11 11 11 12 12 13 13 13 13 13 13 14 14 15 15 15 16 16 16 16 16 17 17 17 17 17 17 17 18 18 18 19 19 20 20 20 20 20 20 20 20 20 20 20 21 21 20 20 20
19 19 18 17 15 15 17 16 15 16 16 13 13 13 13 13 13 13 11 11 11 12 11 12 12 13 13 13 13 13 12 12 11 11 11 11 11 11 11 12 12 13 13 13 14 14 14 14 14 15 15 16 16 16 16 16 17 17 17 18 18 18 18 18 18 18 19 19 20 20 20 20 20 21 21 21 21 20 20 20 20 20 20 20 20 20
18 19 17 15 15 16 17 17 16 15 14 13 13 13 13 13 13 12 10 10 10 11 11 12 12 13 12 12 13 12 12 11 11 11 11 11 11 11 11 12 12 13 13 14 14 14 15 15 15 16 16 17 17 17 17 17 17 18 19 19 19 18 18 18 19 19 20 20 20 20 20 20 21 21 21 21 21 21 20 20 20 20 20 20 20 20
17 17 16 14 14 16 16 16 16 14 13 14 14 13 14 14 13 12 10 9 10 11 11 12 12 12 12 12 13 13 12 11 11 10 11 11 11 11 11 11 12 13 13 13 14 14 15 16 16 16 17 17 17 17 18 18 19 19 19 19 19 19 19 19 19 20 20 20 21 21 21 21 21 21 21 21 21 21 21 21 21 21 20 20 20 20
15 15 15 14 13 14 14 13 12 13 13 14 15 15 15 14 13 13 12 11 11 11 11 12 13 13 12 12 13 13 13 11 11 11 11 12 12 12 12 12 13 13 13 14 14 15 15 15 16 16 17 17 18 18 18 19 19 19 19 19 19 19 19 19 19 20 20 21 21 21 21 21 21 21 21 20 20 20 21 21 21 20 20 19 19 18
13 13 14 13 12 13 13 12 12 14 13 14 16 16 15 14 13 13 12 12 12 12 12 12 13 13 13 13 14 14 14 12 12 13 13 13 13 13 13 13 13 13 14 14 14 14 14 15 15 15 16 17 17 18 18 18 18 18 18 19 19 19 19 19 19 20 20 21 21 20 20 21 21 21 21 20 20 20 20 20 20 20 19 18 17 17
11 11 12 12 12 13 14 13 13 12 11 13 16 16 14 14 14 14 13 13 13 13 13 13 13 13 14 14 14 15 15 14 14 15 14 14 13 13 13 13 13 13 13 13 13 13 13 14 15 15 15 16 16 16 17 17 17 17 17 18 18 18 18 19 19 19 20 20 20 20 20 20 21 21 20 20 20 20 20 20 20 19 18 17 16 15
10 10 10 11 12 13 13 12 11 10 10 12 15 15 14 14 14 15 15 14 15 15 15 14 14 14 14 15 15 15 15 14 14 14 14 13 13 13 12 12 11 11 11 11 12 12 13 13 14 14 14 14 15 15 15 15 15 16 16 17 17 18 18 18 19 19 19 19 20 20 20 20 20 20 20 19 19 19 19 19 19 19 18 16 15 14
9 9 9 11 12 12 12 11 10 10 11 13 14 14 13 13 14 14 13 13 15 15 15 15 14 14 14 14 14 13 12 12 13 13 13 12 12 11 11 10 10 10 10 11 11 12 12 12 12 13 13 14 14 14 15 15 15 15 16 16 17 17 18 18 18 18 18 18 19 19 19 18 19 19 19 19 19 19 19 18 18 18 17 17 15 14
10 10 10 10 11 11 11 11 10 10 12 14 14 13 13 13 13 12 11 12 14 15 14 14 13 13 13 12 12 11 10 10 10 11 11 11 10 10 10 10 9 10 10 10 10 11 11 11 11 12 13 13 14 14 15 15 15 16 16 17 17 18 18 18 18 18 18 17 17 17 18 18 18 18 19 19 19 19 19 18 17 17 16 16 16 15
10 10 11 11 10 11 12 12 11 11 13 15 14 13 12 12 11 11 12 13 14 14 13 13 12 12 12 11 10 10 9 9 9 9 10 10 9 9 9 9 9 9 9 9 10 10 11 11 11 12 12 13 14 14 14 15 15 16 16 17 17 18 18 18 18 18 17 17 17 17 18 18 18 18 18 18 18 18 18 18 17 17 16 16 15 15
10 10 11 11 11 11 11 11 10 10 12 14 13 12 11 11 11 12 12 12 13 13 13 12 12 12 11 10 10 9 9 9 10 9 9 9 9 9 8 8 8 8 9 9 9 10 11 11 11 12 13 13 14 14 14 15 15 16 17 17 18 18 18 18 18 18 17 17 17 17 18 18 18 18 18 18 17 17 17 17 17 17 16 15 15 15
10 10 10 10 10 10 9 10 10 10 11 11 11 10 11 10 11 12 12 12 13 13 12 12 11 11 10 10 10 9 9 9 9 9 9 8 8 8 7 7 8 8 8 9 10 10 11 11 12 13 13 14 14 14 15 15 16 16 17 17 18 18 18 18 18 18 18 18 18 18 18 18 18 18 18 18 17 17 16 16 16 16 16 15 14 14
10 10 10 10 11 9 8 8 9 9 10 10 10 10 11 10 10 11 11 12 12 11 11 11 11 11 11 10 10 9 9 9 8 8 7 7 7 6 6 7 7 8 8 9 10 11 11 12 12 13 13 14 14 15 15 16 16 17 17 18 18 18 18 18 18 18 18 18 18 18 18 18 18 18 17 17 17 17 17 16 15 15 15 15 15 14
11 10 10 11 12 11 9 9 10 10 10 11 11 11 10 10 10 11 11 11 11 11 11 11 11 11 11 10 9 9 8 8 7 6 6 6 5 5 5 6 6 7 7 8 9 10 10 11 11 12 13 13 14 14 15 16 16 16 17 17 18 18 18 18 18 18 18 18 18 18 18 18 18 17 17 16 16 16 16 16 16 15 15 15 15 15
11 12 11 11 11 11 10 11 11 10 11 11 11 11 11 10 11 11 10 11 11 11 12 12 11 11 10 10 9 8 8 7 6 5 5 5 4 4 4 4 5 5 6 7 8 8 9 10 10 11 12 13 13 14 14 15 16 16 16 17 17 17 17 17 18 18 18 18 18 18 18 17 17 17 16 16 15 15 15 15 16 15 15 15 15 15
12 12 12 11 11 10 11 12 12 11 10 11 11 11 11 11 11 12 11 12 12 12 12 12 11 10 10 9 8 7 7 6 5 5 4 4 3 3 3 3 3 4 5 6 7 7 8 9 10 11 11 12 13 13 14 14 15 15 16 16 16 16 16 17 17 17 17 17 17 17 17 17 17 16 16 16 15 15 14 14 15 15 14 14 14 14
13 13 12 12 13 12 12 14 14 12 11 12 12 12 12 12 12 13 13 13 13 13 12 12 11 10 9 8 8 7 6 6 5 5 4 3 2 2 1 1 2 3 4 5 6 6 7 8 9 10 11 11 12 13 13 14 14 14 15 15 15 15 15 15 16 16 16 16 17 17 17 17 16 16 16 16 15 15 14 14 13 13 14 14 14 13
13 13 13 12 12 13 14 16 14 12 12 14 13 13 13 13 13 14 14 13 13 12 12 12 11 10 9 9 8 8 7 6 6 5 4 3 2 2 1 1 2 3 4 5 6 6 7 8 9 10 11 11 12 12 13 13 14 14 14 15 15 15 15 15 15 15 15 15 16 16 16 16 16 16 16 16 15 15 15 14 14 13 13 13 13 13
Wind_Direction
214 216 217 217 216 214 214 214 217 220 215 210 209 210 209 206 207 205 201 203 206 206 206 205 202 202 206 206 208 211 211 216 219 218 219 217 214 212 210 209 212 217 223 231 236 241 245 249 256 260 265 268 269 273 273 271 269 270 274 272 273 278 272 269 273 273 272 271 271 271 272 272 271 270 269 269 269 270 269 266 263 260 255 251 250 247
214 218 218 216 216 214 213 214 215 217 213 210 211 209 207 206 205 203 203 204 208 210 207 204 204 206 210 211 214 215 214 217 219 220 222 216 213 211 208 208 212 217 224 232 236 239 243 248 256 261 264 267 270 273 273 272 270 270 275 276 275 277 276 275 277 277 275 273 274 275 275 275 274 272 270 269 269 269 268 265 262 259 258 256 254 249
216 220 218 215 216 213 211 212 213 214 213 212 212 209 207 204 200 201 203 204 208 211 207 204 207 209 210 213 216 217 214 214 215 220 225 218 211 208 206 208 213 217 224 232 237 239 243 251 259 263 265 268 271 273 274 273 272 272 278 281 278 279 282 281 280 281 280 276 276 278 281 281 278 275 271 269 269 269 268 264 262 260 258 257 255 251
216 219 217 213 212 210 210 211 212 214 215 214 211 208 207 202 200 204 204 203 208 210 205 202 207 211 211 212 215 215 211 209 210 213 219 214 205 203 204 207 213 218 224 231 238 243 250 258 263 265 268 270 272 274 274 276 276 277 281 283 281 281 282 282 283 285 283 279 277 279 283 285 283 278 272 269 268 268 267 264 262 260 259 256 254 254
218 218 213 210 210 210 210 210 211 213 214 214 211 210 207 203 204 206 202 201 205 207 203 200 205 210 211 210 211 212 209 207 209 207 205 200 196 197 200 204 211 218 225 232 240 249 257 264 264 265 270 273 274 275 276 278 279 279 282 284 284 284 283 282 284 286 284 281 279 281 285 288 287 282 275 271 268 266 264 263 261 261 259 255 253 254
219 215 209 209 210 210 210 210 210 211 212 213 212 212 209 203 203 200 197 200 205 208 206 205 209 211 209 209 208 209 208 207 208 205 200 196 195 198 202 208 214 221 230 237 245 255 261 265 266 268 272 274 277 279 279 280 281 282 284 287 289 289 287 285 283 283 284 282 281 282 285 288 288 286 280 274 271 268 264 261 260 259 258 257 255 255
217 211 208 209 209 208 210 210 209 209 212 214 211 211 209 203 203 201 199 204 210 211 208 211 217 213 208 210 208 206 205 204 205 204 202 203 201 203 208 214 221 228 237 242 251 259 262 265 268 271 273 275 280 283 283 282 283 284 286 288 290 290 290 289 285 281 281 282 282 282 283 285 286 287 284 280 276 272 267 262 260 260 259 259 258 257
212 208 208 208 207 208 210 211 209 208 213 214 207 208 210 206 205 205 205 210 213 209 207 212 220 217 209 210 208 205 202 201 203 204 204 205 205 207 211 217 226 234 242 248 254 259 262 266 269 270 272 276 281 284 284 285 286 287 289 289 289 289 290 292 289 283 281 282 282 282 283 284 285 285 285 283 279 275 269 266 265 265 263 262 261 259
209 207 207 206 207 209 211 210 207 207 212 213 204 206 210 208 208 208 210 213 214 212 210 211 217 217 209 207 207 205 203 202 203 203 205 206 206 209 213 219 229 236 243 249 253 257 262 267 268 268 272 277 281 283 285 286 286 288 290 291 290 289 290 292 291 285 282 283 283 281 282 284 284 283 283 282 279 276 271 268 266 266 264 264 263 262
210 209 207 206 209 210 210 210 206 206 211 210 204 206 209 210 211 211 212 214 214 216 216 209 211 216 210 205 207 207 205 205 204 204 207 207 207 209 214 221 229 236 242 246 249 254 260 267 271 273 275 279 281 283 285 286 287 289 290 292 292 291 290 291 290 286 283 284 283 282 282 282 283 282 281 280 277 275 272 270 267 265 264 264 264 263
208 208 208 208 210 209 208 207 205 206 208 205 202 204 207 209 211 212 214 216 215 218 218 208 208 216 213 205 206 207 206 205 204 205 207 207 208 210 215 222 229 236 241 244 248 256 264 270 276 281 281 283 283 283 285 287 290 292 292 292 292 292 290 289 288 286 284 284 284 283 282 281 282 281 280 279 276 273 271 270 269 266 263 263 264 263
205 205 208 208 209 208 205 204 204 206 206 204 204 203 205 208 210 211 213 215 218 218 213 205 205 215 216 207 204 204 204 204 204 205 204 205 207 211 215 221 227 234 239 244 252 260 267 274 280 286 287 288 289 289 290 290 291 292 292 292 291 290 289 288 287 286 285 284 285 285 283 280 280 279 279 278 276 273 270 268 269 266 263 262 263 262
207 207 206 205 207 206 204 204 206 207 207 207 206 202 203 206 208 211 211 212 217 214 207 204 205 212 213 203 200 201 201 202 202 203 203 204 207 210 215 220 228 235 242 248 256 264 270 278 284 288 289 290 292 293 292 292 292 292 292 292 290 289 289 288 287 287 286 286 285 285 283 281 280 279 278 276 275 272 269 267 267 265 262 260 261 260
205 207 206 205 207 207 208 207 206 207 207 207 206 203 204 205 207 211 211 210 212 209 205 205 205 208 206 201 199 199 200 199 197 198 201 204 207 211 215 222 230 239 246 253 260 267 274 282 287 288 288 289 290 291 290 290 292 292 292 292 291 290 290 289 289 289 288 287 285 283 282 282 281 279 276 274 272 271 269 266 264 263 262 259 259 259
203 206 206 206 207 206 208 210 207 206 206 207 207 207 208 209 210 213 213 211 209 204 202 204 207 208 206 202 199 198 200 199 197 199 202 205 208 212 217 224 233 242 249 256 261 268 276 283 286 286 286 287 287 288 289 289 291 292 292 293 293 292 291 291 291 291 290 289 287 285 284 283 281 278 275 272 270 269 267 265 263 261 261 259 257 257
206 209 205 205 207 205 207 211 208 205 206 207 208 210 212 213 213 213 216 214 207 202 201 204 208 208 203 199 197 199 200 200 200 202 204 207 210 214 221 229 238 246 252 258 262 269 277 282 284 285 286 286 287 288 289 290 291 291 291 291 292 293 293 294 294 293 292 291 290 288 287 285 281 277 274 271 270 269 267 265 263 262 261 258 256 255
205 208 200 200 206 205 205 208 206 205 206 205 207 209 210 214 214 210 211 210 205 204 205 205 205 201 201 201 201 202 202 201 203 205 206 209 212 218 226 234 242 249 255 261 264 269 276 280 283 286 287 288 287 288 289 290 291 291 291 292 293 295 296 296 296 295 295 294 293 293 292 289 285 280 275 272 271 270 268 266 264 263 261 258 255 254
204 204 198 199 203 203 204 204 204 207 207 206 208 207 205 211 214 210 208 207 207 210 210 208 205 201 205 208 204 204 204 203 205 206 206 210 213 219 228 236 244 251 256 261 263 268 275 279 284 287 288 289 288 288 288 289 290 291 293 295 297 299 299 300 299 298 297 297 296 296 296 294 290 284 280 276 274 273 270 267 266 264 262 258 255 253
204 204 201 202 202 199 200 202 203 207 210 210 208 205 204 209 212 210 209 207 208 212 211 208 207 208 212 210 205 205 206 205 206 207 209 212 216 221 229 237 245 251 256 261 263 268 275 280 285 287 288 289 288 288 289 290 292 294 295 297 299 300 302 302 301 299 298 298 298 297 296 295 291 287 284 280 278 276 273 272 271 267 262 258 255 251
204 207 202 200 200 196 197 203 203 203 206 209 208 205 207 212 212 209 211 210 210 212 210 207 210 214 215 211 207 206 206 206 207 209 213 216 219 225 231 238 246 252 257 261 262 266 274 279 283 286 288 288 288 288 289 291 294 297 298 300 301 303 304 304 303 301 299 299 299 298 297 295 292 288 286 284 282 279 277 277 277 271 264 259 255 251
202 207 202 195 196 197 199 203 205 202 201 204 206 205 206 209 209 207 210 213 213 213 210 210 214 214 214 214 210 207 207 209 208 210 215 218 221 228 233 239 246 252 256 259 260 264 271 276 280 284 286 287 288 291 292 293 296 298 299 301 304 305 306 306 304 302 301 300 300 301 299 297 295 292 289 287 285 283 281 281 282 277 268 260 255 251
201 204 201 193 195 199 200 201 204 203 202 203 206 206 204 205 205 204 206 209 212 214 211 212 215 212 213 218 213 208 211 212 209 210 216 220 224 229 234 239 244 249 253 255 257 263 270 275 280 284 286 287 290 294 296 297 298 300 302 303 304 305 306 305 304 303 302 301 301 302 302 300 299 297 294 292 289 285 283 282 283 282 274 263 255 251
200 202 198 194 195 198 198 198 201 204 204 205 207 206 203 203 205 207 207 206 209 213 211 214 218 213 213 215 210 209 212 212 212 213 216 221 226 230 233 236 240 244 248 252 255 262 269 276 281 284 287 289 292 296 299 300 301 302 303 305 305 306 306 304 303 303 303 301 302 302 302 301 301 301 299 296 293 289 285 281 280 280 276 267 258 253
197 197 193 192 193 195 196 197 200 203 204 204 205 203 202 203 205 209 210 206 208 212 211 215 218 214 213 212 208 207 209 211 214 215 216 221 226 228 229 233 237 241 245 250 254 261 268 276 281 285 287 290 294 298 300 301 302 302 303 305 306 306 307 306 304 303 303 302 302 302 302 302 302 302 301 299 297 293 288 283 279 276 273 268 263 258
194 195 193 191 190 192 194 195 197 200 202 203 201 200 202 202 202 204 206 206 209 212 212 216 218 214 212 209 206 205 206 210 213 215 217 220 222 224 226 230 236 240 244 249 254 260 269 276 282 285 287 290 294 298 300 302 303 303 304 305 305 305 307 307 305 304 304 303 303 303 303 304 303 302 302 300 299 297 292 287 281 277 272 267 264 262
191 194 195 195 194 194 194 195 196 196 196 198 198 197 200 202 201 200 201 206 210 208 211 217 215 207 205 205 204 205 207 210 212 215 219 220 221 223 224 230 237 241 245 250 254 260 267 275 282 286 288 289 294 298 301 302 302 302 303 304 304 303 305 306 306 306 305 305 305 305 306 307 306 304 302 301 300 299 295 290 285 280 275 270 266 264
189 191 194 196 195 194 193 194 195 192 190 192 194 194 197 201 203 204 205 210 208 203 210 215 202 195 199 202 203 204 207 211 213 214 217 220 221 223 225 232 237 242 248 252 254 259 266 275 282 287 287 289 294 299 300 300 300 301 301 302 302 302 301 301 302 304 305 305 307 307 308 309 308 306 304 302 301 300 298 294 289 283 279 274 270 266
190 190 191 189 186 187 187 186 188 188 186 187 189 191 194 199 204 205 207 211 208 206 211 207 195 194 199 201 203 204 206 210 212 214 218 220 221 222 225 230 235 241 247 251 256 261 267 275 281 285 287 289 294 298 298 299 300 300 300 300 302 301 299 297 298 301 303 306 308 310 310 310 310 308 306 305 304 302 300 297 293 288 282 277 273 270
189 188 188 183 179 182 184 181 181 181 181 182 185 187 192 196 199 201 204 212 213 213 211 199 193 195 199 202 205 204 204 207 209 213 218 219 220 221 222 227 233 240 246 251 258 262 266 272 278 283 287 289 292 296 297 298 300 301 301 302 302 302 300 298 297 300 304 306 309 310 310 310 310 310 309 308 307 305 302 298 295 292 287 281 277 273
189 185 183 178 173 176 180 178 177 178 178 179 182 186 189 192 193 196 201 206 205 203 198 189 188 195 202 205 205 203 203 204 207 213 218 219 221 223 224 229 234 240 247 253 258 261 265 271 277 282 286 288 291 294 296 297 299 301 302 303 303 303 302 299 297 299 302 305 308 309 311 311 311 311 311 310 309 308 306 302 297 293 290 286 281 277
190 185 182 178 171 170 176 178 178 178 177 176 180 187 191 193 196 199 203 206 204 199 195 188 191 204 211 207 202 202 203 205 209 215 219 221 224 225 227 233 239 244 250 256 260 263 267 271 276 281 286 288 290 291 293 295 296 297 299 301 302 302 301 299 297 297 299 302 304 307 310 311 311 312 312 311 310 309 309 307 302 297 293 289 285 280
188 185 185 184 178 174 178 178 177 177 177 176 181 190 194 197 200 204 209 213 208 200 197 199 205 212 212 205 201 204 205 207 212 217 219 223 228 230 231 237 245 250 254 259 263 265 268 272 277 282 285 287 288 289 291 292 293 294 297 299 300 300 299 297 296 296 298 301 302 305 308 310 310 310 311 311 312 312 311 310 308 303 298 293 289 285
186 184 187 188 182 180 182 180 180 185 185 185 192 199 199 197 196 198 204 206 205 204 209 213 213 210 207 204 203 205 207 210 216 219 222 227 233 236 238 243 250 254 258 262 264 265 269 274 278 281 283 285 287 288 289 291 291 293 295 296 298 300 298 297 296 296 297 300 302 304 307 308 308 308 309 310 312 313 313 312 311 309 304 299 295 290
185 184 186 189 186 185 186 184 188 195 195 196 203 205 203 198 193 193 197 201 206 212 214 211 206 204 206 206 204 204 208 212 217 222 228 232 236 239 244 248 251 255 260 263 265 267 271 274 277 280 282 284 286 287 288 290 291 292 294 295 298 300 299 297 296 296 297 299 300 302 304 306 306 306 307 307 309 311 313 313 313 311 308 304 300 296
182 182 183 187 186 185 187 191 196 200 200 201 204 203 198 193 187 185 190 200 205 203 199 198 201 205 205 203 202 202 204 209 217 226 234 238 240 243 247 250 253 257 262 265 267 269 273 274 277 280 283 285 287 287 288 289 291 292 294 296 299 300 299 298 297 297 297 298 299 300 302 304 305 305 305 305 306 308 311 312 313 312 310 308 306 302
179 181 181 182 182 184 190 197 200 200 200 201 201 201 196 192 192 195 200 209 210 205 201 202 204 205 203 200 201 203 205 211 221 232 237 240 242 246 250 254 258 261 264 266 269 271 273 275 278 280 282 285 287 287 288 289 290 292 295 296 297 298 298 298 298 298 298 298 298 299 300 301 302 304 304 303 304 305 307 310 311 311 310 309 309 306
178 182 181 180 186 190 189 192 195 198 203 206 206 206 205 206 212 214 213 218 220 213 208 206 205 205 203 200 202 206 209 216 229 238 241 243 247 252 255 258 260 262 265 268 271 273 274 276 278 280 282 285 287 288 288 289 290 292 293 295 296 296 297 297 297 298 298 298 298 298 299 299 300 301 302 302 303 303 304 307 308 309 309 309 310 309
178 183 183 184 191 192 186 186 195 202 209 211 208 208 212 215 219 216 212 216 221 214 208 207 205 204 204 204 207 213 219 228 238 242 243 245 248 252 254 256 259 263 267 270 272 273 274 276 280 283 285 287 289 290 289 290 292 292 293 295 296 296 297 297 297 297 297 297 297 298 298 298 299 299 300 301 301 302 302 304 305 306 307 308 309 309
178 183 186 186 188 191 193 196 201 205 211 209 205 206 212 215 216 217 219 220 218 211 207 206 205 206 209 211 215 222 230 236 240 241 240 242 245 248 251 254 259 264 268 270 272 273 276 279 282 286 288 290 292 293 292 292 293 294 295 296 297 298 298 298 298 297 296 296 296 297 297 297 297 298 299 300 301 301 301 301 302 302 303 304 306 307
182 187 192 192 190 194 199 201 203 209 212 207 203 205 211 215 217 222 227 224 214 209 208 207 207 210 214 217 223 233 239 237 234 235 236 239 244 248 252 257 262 267 271 273 274 275 278 281 284 287 290 292 293 293 293 293 294 296 297 297 298 300 300 300 299 298 296 295 295 297 297 297 297 297 298 298 299 300 300 300 300 300 300 301 304 305
189 194 198 197 194 196 201 201 203 211 210 205 203 206 210 214 219 226 230 219 206 205 207 207 209 213 218 221 227 236 238 230 226 229 233 237 242 246 251 257 263 268 273 274 276 277 278 282 285 288 291 293 293 293 293 293 294 296 297 298 299 301 301 300 299 298 297 295 295 297 298 299 299 299 298 297 297 297 298 299 299 300 299 299 300 303
197 200 202 201 199 202 204 203 204 210 210 208 206 207 211 219 224 227 222 207 199 201 203 205 209 214 216 218 220 222 222 218 220 227 232 235 240 244 250 256 262 267 272 275 278 280 282 285 288 291 292 293 293 293 293 294 295 296 297 298 299 299 299 299 300 299 299 297 296 297 298 299 299 299 298 298 296 295 294 295 297 298 298 297 297 300
206 205 202 201 204 207 205 206 212 215 210 206 206 208 217 227 225 215 206 200 199 201 202 206 211 213 211 211 212 213 214 215 219 225 230 234 239 244 249 255 260 266 271 276 281 284 286 287 289 292 294 295 295 295 295 296 297 297 297 298 298 298 298 298 298 299 299 298 298 298 298 299 299 298 298 298 297 296 294 293 293 295 296 295 294 295
212 213 206 204 211 213 209 210 218 215 204 203 208 211 214 217 211 203 200 200 201 204 207 210 212 211 209 209 210 211 213 214 217 222 228 233 237 242 248 255 262 269 274 278 284 287 289 290 292 295 297 298 298 298 297 298 299 299 300 299 298 298 298 298 297 297 297 298 298 298 298 299 300 300 299 299 298 298 297 294 291 291 293 294 292 290
211 212 208 205 208 212 210 209 210 205 198 200 207 203 197 197 200 198 196 197 200 205 209 208 206 205 204 202 202 204 207 210 213 218 224 229 233 239 249 258 266 274 280 284 289 292 293 296 298 300 301 301 301 301 299 300 301 302 302 301 299 299 299 298 297 297 297 297 298 299 298 297 298 299 300 299 298 298 299 297 293 290 291 291 291 289
203 205 207 203 197 198 201 200 198 195 190 190 193 192 190 192 195 194 191 192 196 199 198 195 193 192 191 191 193 195 198 202 206 211 218 225 232 242 253 262 272 281 287 291 294 295 297 299 301 302 304 304 304 303 302 302 302 302 302 302 300 300 299 298 297 297 296 296 297 298 299 299 298 299 300 299 298 296 296 297 296 294 292 291 290 289
205 208 205 199 198 202 202 198 195 190 184 184 185 186 187 189 190 189 188 188 189 187 183 181 181 182 183 185 186 186 188 194 200 206 215 225 235 246 257 267 277 285 291 295 298 299 301 303 305 306 307 307 307 307 306 306 305 303 303 303 301 300 298 298 297 297 296 296 296 296 298 299 299 299 300 300 300 299 296 295 295 296 297 294 291 288
207 205 200 198 202 203 198 192 189 184 181 184 185 185 185 186 184 182 179 179 179 176 174 174 177 179 179 180 180 182 185 193 200 206 215 227 236 246 258 270 280 289 296 302 306 307 309 311 312 312 312 311 311 310 310 310 308 307 306 306 305 303 301 300 299 298 297 297 297 296 297 297 297 297 297 297 299 301 300 297 294 294 296 297 294 290
205 203 202 199 197 197 194 190 185 180 183 186 184 182 183 183 179 174 170 170 171 169 168 171 174 175 176 177 180 183 184 188 192 195 201 212 221 232 251 269 286 300 308 311 315 317 319 320 321 321 320 318 316 315 315 315 313 311 310 309 309 308 306 303 301 300 299 299 298 297 297 297 297 296 295 294 294 296 298 299 297 294 293 294 293 291
206 203 201 198 197 202 202 196 190 189 190 187 181 178 180 179 174 169 166 167 168 167 168 169 168 168 169 171 173 174 172 171 173 175 177 182 191 207 244 278 306 324 329 328 329 332 333 333 333 331 329 326 324 323 322 321 319 317 315 314 314 313 311 308 306 304 303 301 300 299 297 297 297 296 295 294 292 291 290 293 296 296 294 292 291 290
210 204 202 205 206 203 197 193 191 190 184 179 175 175 176 174 170 166 164 164 164 163 165 164 161 160 161 161 160 160 158 157 158 155 149 142 137 126 95 52 27 12 1 354 352 349 346 343 342 340 337 334 331 328 327 325 324 322 320 319 319 317 316 314 312 310 308 306 304 302 299 297 296 295 294 294 293 291 289 287 289 292 293 293 291 289